[Date Prev][Date Next][Thread Prev][Thread Next][Date Index][Thread Index][JAMSAT Home]

[jamsat-news:1786] jas2info #310


========================   最新情報   ==============================

        Last updated  14Mar2003  16:45(JST)   #309

====================================================================
   
1)アマチュア通信衛星情報、FOシリーズの軌道要素、テレメトリ、QSOの
   状況等をまとめてみました.
   
 FO−29の2003年3月22日(土)の16:05(JST)のパスでは
JARLのホームページにあるとうりアナログ運用でした。 今日までの観測した
テレメトリーと本日のテレメトリ最終行の分析結果を報告しておきます。

AS32560C  22Mar2003
16:06-16:19(JST)
AOS   MEL  LOS  Elev
  9   285  201  66.0
Freq. 435.806-.787Hz
(JAS-2  No.119  A 1470-2040)

HI HI AE C7 88 55 00 D4 CF 45 09 02 40 56 7E 5F 90 8F B0 72 B4 B3 B4 B4 B0 
HI HI AE C7 88 55 00 D4 CF 45 09 02 5D 43 7F 47 92 92 A0 84 B4 B3 B4 B4 B1 
HI HI AE C7 88 55 00 D4 CF 45 09 02 7A 36 7C 4A 93 91 B0 88 B4 B3 B4 B4 B0 
HI HI AE C7 88 55 00 D4 2E 41 09 04 91 31 75 4F 92 92 9F 7D B4 B3 B4 B4 B1 
HI HI AE C7 88 55 00 D4 8D 4F 09 09 9B VE 6C 60 90 90 B0 85 B4 B3 B4 B4 B1   
HI HI AE C7 88 55 00 D4 87 4F 09 1A 8D 49 74 60 91 91 B0 8F B4 B3 B4 B3 B1 
HI HI AE C7 88 55 00 D4 47 4F 09 14 6E 4F 7E 60 90 90 B0 82 B4 B3 B4 B3 B1 
HI HI AE C7 88 55 00 D4 76 4F 09 16 5E 4C 84 60 90 90 B0 81 B4 B3 B4 B3 B1 
HI HI AE C7 88 55 00 D4 83 4E 09 11 4B 3B 85 5F 8F 90 B0 76 B4 B2 B4 B4 B1 
HI HI AE C7 88 55 00 D4 1C 4E 09 10 4B 2F 84 60 90 90 B0 8D B4 B2 B4 B3 B1 
HI HI AE C7 88 55 00 D4 B3 4D 09 30 5D 28 7E 60 90 90 B0 85 B4 B2 B4 B3 B1 
HI HI AE C7 88 55 00 D4 4B 4D 09 10 78 31 82 60 90 91 B0 7B B4 B2 B4 B3 B1 
HI HI AE C7 88 55 00 D4 CB 4C 09 16 92 49 7E 60 90 92 B0 88 B4 B2 B4 B3 B1 
HI HI AE C7 88 55 00 D4 2B 4B 09 14 96 5A 70 61 91 92 B0 7E B4 B2 B4 B3 B1 
HI HI AE C7 88 55 00 D4 5A 4A 09 1F 8B 5D 6F 61 91 92 B0 7E B4 B2 B3 B3 B1 
HI HI AE C7 88 55 00 D4 2A 49 09 19 74 59 79 61 91 93 B0 8A B3 B2 B3 B3 B1 
HI HI AE C7 88 55 00 D4 F4 47 09 0A 51 4D 81 61 91 93 B0 93 B3 B1 B3 B3 B1 
HI HI AE C7 88 55 00 D4 B1 46 08 0F 3D 4C 81 61 92 93 B0 8A B3 B1 B3 B3 B1 

AS32532C  20Mar2003
14:27-14:36(JST)
AOS   MEL  LOS  Elev
 41    92  144  11.2
Freq. 435.801-.789Hz
(JAS-2  No.119  A 1470-1910 )

HI HI AE C7 88 55 00 D4 0A 4F 09 1E 88 39 6F 60 90 98 B0 78 B4 B3 B4 B3 B0 
HI HI AE C7 88 55 00 D4 05 4F 09 1C 9C 4A 74 60 90 93 B0 78 B4 B3 B4 B3 B0 
HI HI AE C7 88 55 00 D4 C4 4E 09 1D 97 51 7D 60 8F 90 B0 78 B4 B2 B4 B3 B0 
HI HI AE C7 88 55 00 D4 70 4E 09 15 8E 70    60 8F 90 B0 78 B4 B2 B4 B3 B1 
HI HI AE C7 88 55 00 D4 AE 4E 09 15 7A 60    60 8F 90 B0 6D B4 B2 B4 B3 B1 
HI HI AE C7 88 55 00 D4 BC 4D 09 13 58 45 88 60 8F 90 B0 69 B4 B2 B4 B3 B1 
HI HI AE C7 88 55 00 D4 48 4D 09 12 4F 37 82 5F 90 91 B0 7A B3 B2 B3 B3 B1 
HI HI AE C7 88 55 00 D4 CB 4C 09 17 58 31 7C 60 90 91 B0 78 B3 B2 B4 B3 B1 
HI HI AE C7 88 55 00 D4 28 4C 09 24 73 39 78 60 90 91 B0 82 B3 B2 B3 B3 B1 
HI HI AE C7 88 55 00 D4 69 4A 09 1B 8C 48 6C 60 90 92 B0 8A B3 B2 B3 B3 B1 
HI HI AE CG 88 55 00 D4 9E 49 09 08 90 50 6E 61 90 92 B0 88 B3 B1 B3 B3 B1 
HI HI AE C7 88 55 00 D4 B4 48 09 0E 7F 4E 77 61 90 92 B0 86 B3 B1 B3 B3 B1 
HI HI AE C7 88 55 00 D4  

------------------------  FO-29の軌道要素 ------------------------------        
 
  ■ 軌道要素1:「jamsat−keps:1291」より         
          SB KEPS @ AMSAT  $ORB03080.N
          2Line Orbital Elements 03080.AMSAT

HR AMSAT ORBITAL ELEMENTS FOR AMATEUR SATELLITES IN NASA FORMAT
FROM WA5QGD FORT WORTH,TX March 21, 2003
SEND SUBSCRIBE/UNSUBSCRIBE TO majordomo@amsat.org ONLY
BID: ORB03080.N

 DECODE 2-LINE ELSETS WITH THE FOLLOWING KEY:
 1 AAAAAU 00  0  0 BBBBB.BBBBBBBB  .CCCCCCCC  00000-0  00000-0 0  DDDZ
 2 AAAAA EEE.EEEE FFF.FFFF GGGGGGG HHH.HHHH III.IIII JJ.JJJJJJJJKKKKKZ
 KEY: A-CATALOGNUM B-EPOCHTIME C-DECAY D-ELSETNUM E-INCLINATION F-RAAN
 G-ECCENTRICITY H-ARGPERIGEE I-MNANOM J-MNMOTION K-ORBITNUM Z-CHECKSUM

O-29
1 24278U 96046B   03079.42084675  .00000036  00000-0  70035-4 0  5683
2 24278  98.5414 226.5933 0351324 139.0184 223.7929 13.52876926325340

 ■ 軌道要素2:「jamsat−keps:1292」より 
       SB KEPS @ AMSAT  $ORB03080.O
       Orbital Elements  03080.OSCAR

HR AMSAT ORBITAL ELEMENTS FOR OSCAR SATELLITES
FROM WA5QGD FORT WORTH,TX March 21, 2003
SEND SUBSCRIBE/UNSUBSCRIBE TO majordomo@amsat.org ONLY
BID: ORB03080.O
TO ALL RADIO AMATEURS BT
 
Satellite: FO-29
Catalog number: 24278
Epoch time:      03079.42084675
Element set:     568
Inclination:       98.5414 deg
RA of node:       226.5933 deg
Eccentricity:    0.0351324
Arg of perigee:   139.0184 deg
Mean anomaly:     223.7929 deg
Mean motion:   13.52876926 rev/day
Decay rate:        3.6e-07 rev/day^2
Epoch rev:           32534
Checksum:              333

-------------------  FO-29(JAS-2)のテレメトリに関する情報  ---------------------- 
 
2)上記2003年3月22日(土)のテレメトリの16:05のパスの最終行を分析して
 おきます。

AS32560C  22Mar2003
16:06-16:19(JST)
AOS   MEL  LOS  Elev
  9   285  201  66.0
Freq. 435.806-.787Hz
(JAS-2  No.119  A 1470-2040)

HI HI AE C7 88 55 00 D4 B1 46 08 0F 3D 4C 81 61 92 93 B0 8A B3 B1 B3 B3 B1 

テレメトリ   内 容        換算算値 単 位
3C	磁気センサーZ軸=	29901.9	[nT]
3D	磁気センサX軸	=	37254.9	[nT]
4A	太陽電池発生電流=	1264.7	[mA]
4B	B充放電電流	=	-98.8	[mA]
4C	B端子電圧	=	15.7	[V]
4D	B中間端子電圧	=	7.1	[V]
5A	バス電圧	=	17.3	[V]
5B	JTA送信電力	=	798.9	[mW]
5C 	構体温度1	=	12.4	[℃]
5D	構体温度2	=	13.1	[℃]
6A	構体温度3	=	12.4	[℃]
6B	構体温度4	=	12.4	[℃]
6C	Bセル温度	=	13.1	[℃]

 ========================== FO-29(ふじ3号)のテレメトリ分析、QSO情報等 =====================
   
 3)[jamsat-bb:12920]FO-29 CW telemetryにおいて脇田美根夫氏がFO-29 のテレメトリ-の詳しい解析を
  されていましたので転載させて頂きました。

 2003年2月3日に受信された衛星 FO-29 の CWテレメトリ
を、プログラム『Fo29cwt2』を用いて解析してみました。

http://www.asahi-net.or.jp/~ei7m-wkt/numbr364.htm
http://www.ne.jp/asahi/hamradio/je9pel/fo29cwt2.zip

-------------------------------------------
Name: JE9PEL/1 脇田
Mail: ei7m-wkt@asahi-net.or.jp
URL : http://www.asahi-net.or.jp/~ei7m-wkt/
QTH : Yokohama, Japan
Date: Feb 7, 2003
-------------------------------------------
 =================================================================================================
 
 4)JARL のホームページに運用予定が記載されていましたのでご紹介します.
       ( http://www.jarl.or.jp/Japanese/3_Fuji/new/uy.htm )
       
        *** 運用予定について ***

        当分の間     アナログ系運用

  * なお,運用予定は都合により,変更することがありますの,であらかじめご了承願います。

 照会先 : lab@jarl.or.jp

 最新の情報はテレホンサービス(03−3942−1000)をお聞きください。  
  
  ふじ2号(JAS−1b)の運用 

 CWテレメトリの機能に障害が発生しています。詳細は「ふじ2号」の現況をご覧ください。
 運用はアナログ系の連続運用とします。 
     
-----------------------    FO−20(JAS-1b)道要素   -------------------------
  
  ■ 軌道要素1 :出典はFO-29「ふじ3号」に同じ.
  
FO-20
1 20480U 90013C   03078.93561975 -.00000006  00000-0  67787-4 0 04744
2 20480 099.0509 036.1641 0539943 297.4070 057.3089 12.83331317614286
 
  ■ 軌道要素2 :出典はFO−29「ふじ3号」に同じ.
               
Satellite: FO-20
Catalog number: 20480
Epoch time:      03078.93561975
Element set:    0474
Inclination:      099.0509 deg
RA of node:       036.1641 deg
Eccentricity:    0.0539943
Arg of perigee:   297.4070 deg
Mean anomaly:     057.3089 deg
Mean motion:   12.83331317 rev/day
Decay rate:       -6.0e-08 rev/day^2
Epoch rev:           61428
Checksum:              313

-------------------------------------------------------------------------------- 
         ■ ふじ2号/FO−20/JAS-1b ■      
            
          「ふじ2号」 現況                                                                                  
             
   JAS-1b(ふじ2号)のCWテレメトリ信号に,1997年10月12日12時(JST)の
 日本上空通過時,3桁の数字が繰り返されるはずが3個の長音の繰り返しとなっているという
 異常が発見されました。この不具合は次の通過時からは回復していましたが13日15時20分の
 通過時に再び観測されました。現在はA0の送信が続いています。衛星のアナログ系中継モード
 動作は異常が無く,正常時のテレメトリ内容からは衛星の動作に異常は認められません。従って,
 直ちに衛星のミッションに影響することは無いと予想されますので,当面はアナログ系中継
 モードを継続します。衛星は既に打ち上げてから7年8ヶ月を経ておりますので,今後は監視を
 強化する予定です。アマチュア各位のレポートをお待ちします。
 -------------------------------------------------------------------------------- 
  1997年10月14日 00時35分 確認のテレメトリ音 151 KB (A0) 
  1997年10月14日 11時10分 確認のテレメトリ音 216 KB (異常キーイング) 

  以上 JARLのホ−ムページの http://www.jarl.or.jp/Japanese/3_Fuji/new/fuji.htm

===================== FO-20 ふじ2号 のテレメトリ観測結果 ====================

  12月20日(金)13:59(JST)の観測結果ではテレメトリは、以前観測した単一周波数の
正弦波がドップラー効果で周波数がずれていくのみの状態でした。
                                         
   =============   JAS-2 (ふじ3号)と現在までの情報   ===========
  
  A.電話によるふじ3号の運用情報
      社団法人日本アマチュア連盟によるサービス
           TEL .   03− 3942 − 1000
  B.アマチュア無線FAXサービス
      JARLによるふじ3号の軌道情報(オービットカレンダー)
         FAX No.  03− 3233 −0055
  C.WWWブラウザで情報を簡単に見れる人のためにJAS-1,JAS‐1b,
   JAS‐2(ふじ1号からふじ3号の衛星としての運用されるまでの名前)の
   概要、打ち上げまでの状況、運用中における状況を説明したホームページを
   紹介しておきます.

     社団法人日本アマチュア無線連盟(JARL)のホームページ

         http://www.jarl.or.jp/Japanese/3_Fuji/new/fuji.htm
     http://www.jarl.or.jp/Japanese/3_Fuji/history/history.htm
 
     宇宙開発事業団(NASDA)ホームページ 

      1)「ふじ1号」(JAS−1:FO−12)
         http://spaceboy.nasda.go.jp/lib/satellites/jas/j/jas_01_j.html
         http://spaceboy.nasda.go.jp/lib/satellites/jas/g/h_15_017.jpg
         http://spaceboy.nasda.go.jp/lib/satellites/jas/e/jas_01_e.html
         http://space.nasda.go.jp/db/kaihatu/eisei/eisei_j/jas_1_a_j.html#2
         http://spaceboy.nasda.go.jp/note/eisei/j/eis15h_j.html#eis15h_01_j
         http://www.nasda.go.jp/lib/nasda-news/1996/12/resai_j.html
         http://spaceboy.nasda.go.jp/lib/satellites/jas/g/h_15_007.jpg
         http://www.nasda.go.jp/press/2002/02/pb_020220_j.html

      2)「ふじ2号」(JAS−1b:FO−20)
         http://spaceboy.nasda.go.jp/lib/satellites/mos/g/h_21_018.jpg
         http://spaceboy.nasda.go.jp/lib/satellites/mos/g/h_21_019.jpg
         http://spaceboy.nasda.go.jp/note/eisei/j/eis15h_j.html#eis15h_01_j

      3)「ふじ3号」(JAS−2:FO−29)
         http://www.nasda.go.jp/lib/nasda-news/1996/09/h2_j.html
         http://www.nasda.go.jp/pr/services/presskit/h2-f4/p-h2_3_e.html
         http://space.nasda.go.jp/db/kaihatu/eisei/eisei_j/jas-2_j.html
         http://spaceboy.nasda.go.jp/note/eisei/j/eis15i_j.html#eis15i_03_j

  D.JAMSATによる軌道情報の活用
        JAMSATのホームページまたはjamsat−kepsの軌道要素より
      衛星の軌道情報を得る.
     JAMSATホームページ
               URL    http://www.jamsat.or.jp
       上記ホームページでは各地で行われるアマチュア通信衛星に関する
      ミューティングのお知らせや世界のアマチュア衛星に関する情報が
      満載されています.

 ========================================================================  
     JAMSATのメンバーのご協力によりJH6MME(高山 秀造)が
    執筆・編集を担当しております.ご指摘の意見、疑問やこのようにしたら
    というアイデアがありましたら小さなことでもかまいませんので気軽に下
    記アドレスまでご連絡ください.jamsat−newsからjas2
    infoへの転載をJH4PHW局坂井さんに担当して頂いております.  
                  E-mail : jh6mme@jamsat.or.jp : jh4phw@jamsat.or.jp
 ===============================   END  ===============================